When you browse on this site, cookies collect data to enhance your experience and personalize the content and advertising you see.
Visit our Privacy Policy to learn more. By continuing to use the site, you agree to this use of cookies and data.
  • In Spain
  • List of Countries
  • For 7 days
  • Water Temperature
  • Satellite Maps
  • Weather Map
  • Weather Widgets
  • user-avatar
    Login

    Hourly Weather Salno

    Today, 16 November, Friday

    Time Temperature Precipitation Wind Pressure Humidity
    00:00 +4°C° 0 mm 2 mps 766 mmHg 85%
    01:00 +4°C° 0 mm 2 mps 766 mmHg 86%
    02:00 +4°C° 0 mm 2 mps 766 mmHg 88%
    03:00 +3°C° 0 mm 2 mps 766 mmHg 89%
    04:00 +3°C° 0 mm 2 mps 767 mmHg 91%
    05:00 +3°C° 0 mm 2 mps 767 mmHg 91%
    06:00 +3°C° 0 mm 2 mps 767 mmHg 92%
    07:00 +2°C° 0 mm 2 mps 767 mmHg 92%
    08:00 +2°C° 0 mm 3 mps 767 mmHg 87%
    09:00 +3°C° 0 mm 3 mps 768 mmHg 82%
    10:00 +3°C° 0 mm 3 mps 768 mmHg 77%
    11:00 +4°C° 0 mm 3 mps 768 mmHg 73%
    12:00 +4°C° 0 mm 3 mps 768 mmHg 70%
    13:00 +5°C° 0 mm 3 mps 768 mmHg 66%
    14:00 +4°C° 0 mm 3 mps 768 mmHg 69%
    15:00 +3°C° 0 mm 3 mps 768 mmHg 72%
    16:00 +4°C° 0 mm 2 mps 768 mmHg 74%
    17:00 +2°C° 0 mm 3 mps 768 mmHg 77%
    18:00 +2°C° 0 mm 3 mps 769 mmHg 79%
    19:00 +2°C° 0 mm 3 mps 769 mmHg 81%
    20:00 +1°C° 0 mm 3 mps 769 mmHg 83%
    21:00 +1°C° 0 mm 3 mps 769 mmHg 86%
    22:00 +2°C° 0 mm 2 mps 769 mmHg 88%
    23:00 +2°C° 0 mm 2 mps 769 mmHg 89%

    Tomorrow, 17 November, Saturday

    Time Temperature Precipitation Wind Pressure Humidity
    00:00 +1°C° 0 mm 2 mps 769 mmHg 91%
    01:00 +1°C° 0 mm 2 mps 770 mmHg 92%
    02:00 +1°C° 0 mm 2 mps 769 mmHg 92%
    03:00 +1°C° 0 mm 2 mps 769 mmHg 92%
    04:00 -1°C° 0 mm 2 mps 769 mmHg 92%
    05:00 -1°C° 0 mm 2 mps 769 mmHg 92%
    06:00 -1°C° 0 mm 2 mps 770 mmHg 91%
    07:00 -1°C° 0 mm 2 mps 770 mmHg 90%
    08:00 +1°C° 0 mm 2 mps 770 mmHg 82%
    09:00 +2°C° 0 mm 2 mps 770 mmHg 75%
    10:00 +3°C° 0 mm 2 mps 770 mmHg 67%
    11:00 +4°C° 0 mm 2 mps 769 mmHg 62%
    12:00 +4°C° 0 mm 2 mps 769 mmHg 58%
    13:00 +5°C° 0 mm 2 mps 769 mmHg 53%
    14:00 +4°C° 0 mm 2 mps 769 mmHg 56%
    15:00 +4°C° 0 mm 2 mps 769 mmHg 59%
    16:00 +3°C° 0 mm 2 mps 768 mmHg 63%
    17:00 +2°C° 0 mm 2 mps 768 mmHg 63%
    18:00 +3°C° 0 mm 1 mps 768 mmHg 64%
    19:00 +3°C° 0 mm 1 mps 768 mmHg 64%
    20:00 +2°C° 0 mm 1 mps 768 mmHg 64%
    21:00 +2°C° 0 mm 1 mps 767 mmHg 64%
    22:00 +2°C° 0 mm 1 mps 767 mmHg 64%
    23:00 +2°C° 0 mm 1 mps 767 mmHg 64%

    Day after tomorrow, 18 November, Sunday

    Time Temperature Precipitation Wind Pressure Humidity
    00:00 +2°C° 0 mm 1 mps 766 mmHg 63%
    01:00 +2°C° 0 mm 1 mps 766 mmHg 63%
    02:00 +1°C° 0 mm 1 mps 766 mmHg 64%
    03:00 +1°C° 0 mm 1 mps 765 mmHg 65%
    04:00 +1°C° 0 mm 1 mps 765 mmHg 66%
    05:00 -1°C° 0 mm 2 mps 764 mmHg 70%
    06:00 -1°C° 0 mm 2 mps 764 mmHg 75%
    07:00 -1°C° 0 mm 2 mps 763 mmHg 79%
    08:00 +2°C° 0 mm 2 mps 763 mmHg 81%
    09:00 +3°C° 0 mm 2 mps 763 mmHg 83%
    10:00 +3°C° 0 mm 3 mps 762 mmHg 85%
    11:00 +3°C° 0 mm 3 mps 762 mmHg 86%
    12:00 +3°C° 0 mm 3 mps 762 mmHg 87%
    13:00 +4°C° 0 mm 3 mps 761 mmHg 88%
    14:00 +4°C° 0 mm 3 mps 761 mmHg 87%
    15:00 +4°C° 0 mm 3 mps 760 mmHg 87%
    16:00 +4°C° 0 mm 4 mps 760 mmHg 86%
    17:00 +4°C° 0 mm 4 mps 760 mmHg 84%
    18:00 +3°C° 0 mm 4 mps 760 mmHg 82%
    19:00 +3°C° 0 mm 4 mps 759 mmHg 80%
    20:00 +3°C° 0 mm 4 mps 759 mmHg 81%
    21:00 +3°C° 0 mm 3 mps 759 mmHg 83%
    22:00 +3°C° 0 mm 3 mps 759 mmHg 84%
    23:00 +3°C° 0.1 mm 3 mps 759 mmHg 84%

    19 November, Monday

    Time Temperature Precipitation Wind Pressure Humidity
    00:00 +3°C° 0.1 mm 3 mps 759 mmHg 85%
    01:00 +3°C° 0.1 mm 4 mps 758 mmHg 85%
    02:00 +3°C° 0.1 mm 4 mps 758 mmHg 83%
    03:00 +2°C° 0.1 mm 5 mps 758 mmHg 81%
    04:00 +1°C° 0.1 mm 5 mps 757 mmHg 80%
    05:00 +1°C° 0.1 mm 5 mps 757 mmHg 79%
    06:00 0°C° 0.1 mm 5 mps 757 mmHg 78%
    07:00 0°C° 0.1 mm 5 mps 757 mmHg 77%
    08:00 -1°C° 0 mm 6 mps 757 mmHg 75%
    09:00 -1°C° 0 mm 6 mps 757 mmHg 74%
    10:00 +1°C° 0 mm 6 mps 757 mmHg 73%
    11:00 +1°C° 0 mm 6 mps 757 mmHg 72%
    12:00 +1°C° 0 mm 6 mps 757 mmHg 71%
    13:00 +2°C° 0 mm 5 mps 757 mmHg 70%
    14:00 +2°C° 0 mm 5 mps 757 mmHg 71%
    15:00 +1°C° 0 mm 5 mps 757 mmHg 73%
    16:00 +1°C° 0 mm 4 mps 757 mmHg 75%
    17:00 +1°C° 0 mm 4 mps 756 mmHg 76%
    18:00 +1°C° 0 mm 4 mps 756 mmHg 78%
    19:00 +1°C° 0 mm 4 mps 756 mmHg 80%
    20:00 0°C° 0.1 mm 4 mps 756 mmHg 81%
    21:00 0°C° 0.1 mm 4 mps 756 mmHg 81%
    22:00 0°C° 0.1 mm 4 mps 756 mmHg 82%
    23:00 0°C° 0.1 mm 4 mps 756 mmHg 83%

    20 November, Tuesday

    Time Temperature Precipitation Wind Pressure Humidity
    00:00 0°C° 0.1 mm 4 mps 755 mmHg 84%
    01:00 0°C° 0.1 mm 4 mps 755 mmHg 84%
    02:00 0°C° 0 mm 4 mps 755 mmHg 85%
    03:00 0°C° 0 mm 4 mps 755 mmHg 86%
    04:00 0°C° 0 mm 4 mps 755 mmHg 87%
    05:00 0°C° 0 mm 4 mps 755 mmHg 88%
    06:00 -1°C° 0 mm 4 mps 754 mmHg 88%
    07:00 -1°C° 0 mm 4 mps 754 mmHg 89%
    08:00 0°C° 0 mm 4 mps 754 mmHg 85%
    09:00 0°C° 0 mm 4 mps 755 mmHg 82%
    10:00 0°C° 0 mm 4 mps 755 mmHg 78%
    11:00 0°C° 0 mm 4 mps 755 mmHg 76%
    12:00 +1°C° 0 mm 4 mps 754 mmHg 73%
    13:00 +1°C° 0 mm 5 mps 754 mmHg 71%
    14:00 0°C° 0 mm 4 mps 754 mmHg 72%
    15:00 0°C° 0 mm 4 mps 754 mmHg 73%
    16:00 0°C° 0 mm 4 mps 754 mmHg 74%
    17:00 -1°C° 0 mm 4 mps 754 mmHg 74%
    18:00 -1°C° 0 mm 4 mps 754 mmHg 75%
    19:00 -1°C° 0 mm 5 mps 754 mmHg 76%
    20:00 -1°C° 0 mm 4 mps 754 mmHg 77%
    21:00 -2°C° 0 mm 4 mps 754 mmHg 78%
    22:00 -2°C° 0 mm 4 mps 754 mmHg 79%
    23:00 -3°C° 0 mm 4 mps 754 mmHg 80%

    21 November, Wednesday

    Time Temperature Precipitation Wind Pressure Humidity
    00:00 -3°C° 0 mm 4 mps 753 mmHg 80%
    01:00 -4°C° 0 mm 5 mps 753 mmHg 80%
    02:00 -4°C° 0 mm 5 mps 753 mmHg 81%
    03:00 -2°C° 0 mm 5 mps 753 mmHg 82%
    04:00 -3°C° 0 mm 6 mps 752 mmHg 83%
    05:00 -3°C° 0 mm 6 mps 752 mmHg 82%
    06:00 -2°C° 0 mm 6 mps 752 mmHg 81%
    07:00 -2°C° 0 mm 6 mps 752 mmHg 80%
    08:00 -2°C° 0 mm 7 mps 752 mmHg 79%
    09:00 -1°C° 0 mm 7 mps 751 mmHg 77%
    10:00 -1°C° 0 mm 8 mps 751 mmHg 75%
    11:00 -1°C° 0 mm 8 mps 751 mmHg 75%
    12:00 -1°C° 0 mm 8 mps 751 mmHg 75%
    13:00 -1°C° 0 mm 8 mps 750 mmHg 74%
    14:00 -1°C° 0.1 mm 8 mps 750 mmHg 75%
    15:00 -1°C° 0.1 mm 8 mps 750 mmHg 75%
    16:00 -1°C° 0.1 mm 8 mps 749 mmHg 76%
    17:00 -1°C° 0.2 mm 8 mps 749 mmHg 76%
    18:00 -1°C° 0.2 mm 9 mps 749 mmHg 77%
    19:00 -3°C° 0.2 mm 9 mps 749 mmHg 77%
    20:00 -3°C° 0.1 mm 9 mps 749 mmHg 77%
    21:00 -3°C° 0.1 mm 9 mps 750 mmHg 77%
    22:00 -3°C° 0.1 mm 9 mps 750 mmHg 77%
    23:00 -3°C° 0.1 mm 9 mps 750 mmHg 78%
    Show more